St Lucie County International Airport
KFPR : rendu visible

Aérodrome :











RETROUVEZ-NOUS SUR...

 
LOGIN :

S'inscrire | Disclaimer

   EN    FR    IT 

 









Légende :    VFR   VFR Marginal   IFR   IFR Intensif   IFR Très Intensif
Visi : 
Plafond : 
>= 8 km
>= 3000ft
5 à 8 km
1000 à 3000 ft
1500m à 5 km
500 à 1000 ft
800 à 1500m
200 à 500 ft
< 800m
< 200 ft
Symboles :   Orages  Brouillard  Fortes neiges  Fortes précipitations  Vent > 20 kt






- Altitude de l'aérodrome : 24 ft
- Code IATA : FPR


KFPR - St Lucie County International

DERNIER METAR :
  • 021653Z 09012G16KT 10SM FEW050 24/12 A3000 RMK AO2 SLP157 T02440117

METARs EXPIRÉS :
  • 021553Z 07007KT 020V090 10SM CLR 24/11 A3001 RMK AO2 SLP162 T02390111
  • 021453Z VRB05KT 10SM CLR 23/11 A3002 RMK AO2 SLP164 T02280106 51014
  • 021353Z VRB03KT 10SM CLR 22/11 A3001 RMK AO2 SLP160 T02220111

TAF KFPR
Valide du 02 à 12h jusqu'au 03 à 12h UTC


021138Z 0212/0312 01004KT P6SM FEW040
FM021500 05010KT P6SM SCT035
FM030100 04003KT P6SM SCT250



MET'MAP, la Météo Aéronautique d'un coup d'oeil ! - Copyright ORBIFLY Décembre 2007 - Disclaimer

ORBIFLY MET'MAP TEAM :

Programmation & Développement : Alexandra Zaïnal
Sur une idée originale de : Baudouin d'Aumeries
Assistance à la programmation : Marc-Olivier Méhu
Soutien technique & logistique : Manuel Goepfert

Contact : metmap@orbifly.com




SOURCES & CREDITS :

   NOAA       Earth
Advisory